Gallup, NM

11:13 PM MDT on August 21, 2017 (GMT -0600)
Gallup Municipal

Weather History for KGUP - November, 2013

Change the Weather History Date:

Saturday, November 30, 2013

  Actual Average Record
Temperature  
Mean Temperature 36 °F -  
Max Temperature 48 °F 46 °F 68 °F (1999)
Min Temperature 25 °F 15 °F -10 °F (1976)
Degree Days  
Heating Degree Days 28    
Moisture  
Dew Point 29 °F    
Average Humidity 92    
Maximum Humidity 100    
Minimum Humidity 61    
Precipitation  
Precipitation 0.00 in - - ()
Sea Level Pressure  
Sea Level Pressure 30.35 in    
Wind  
Wind Speed 2 mph (NW)    
Max Wind Speed 8 mph    
Max Gust Speed -    
Visibility 4 miles    
Events Fog    
Averages and records for this station are not official NWS values.
T = Trace of Precipitation, MM = Missing Value Source: NWS Daily Summary

Daily Weather History Graph

Daily Weather History Graph

Search for Another Location

Airport or City:

Trip Planner

Search our weather history database for the weather conditions in past years. The results will help you decide how hot, cold, wet, or windy it might be!

Date:

Astronomy

Nov. 30, 2013 Rise Set
Actual Time 7:05 AM MST 5:02 PM MST
Civil Twilight 6:37 AM MST 5:30 PM MST
Nautical Twilight 6:06 AM MST 6:01 PM MST
Astronomical Twilight 5:35 AM MST 6:32 PM MST
Moon 4:24 AM MST (11/30) 3:25 PM MST (11/30)
Length of Visible Light 10h 52m
Length of Day
9h 56m
Waning Crescent, 7% of the Moon is Illuminated
Nov 30
Waning Crescent
Dec 2
New
Dec 9
First Quarter
Dec 17
Full
Dec 25
Last Quarter

Hourly Weather History & Observations

Time (MST) Temp. Windchill Dew Point Humidity Pressure Visibility Wind Dir Wind Speed Gust Speed Precip Events Conditions
12:53 AM 27.0 °F - 25.0 °F 92% 30.29 in 9.0 mi Calm Calm - N/A   Clear
1:31 AM 27.0 °F 23.0 °F 25.0 °F 92% 30.33 in 3.0 mi West 3.5 mph - N/A   Scattered Clouds
1:34 AM 26.1 °F 21.9 °F 25.0 °F 96% 30.33 in 1.0 mi West 3.5 mph - N/A   Mist
1:39 AM 25.0 °F - 25.0 °F 100% 30.33 in 0.2 mi Calm Calm - N/A Fog Light Freezing Fog
1:53 AM 27.0 °F 23.0 °F 26.1 °F 96% 30.29 in 0.2 mi South 3.5 mph - N/A Fog Light Freezing Fog
2:53 AM 27.0 °F 23.0 °F 26.1 °F 96% 30.29 in 0.2 mi West 3.5 mph - N/A Fog Light Freezing Fog
3:10 AM 27.0 °F - 27.0 °F 100% 30.35 in 0.5 mi Calm Calm - N/A Fog Light Freezing Fog
3:25 AM 27.0 °F - 27.0 °F 100% 30.35 in 1.0 mi Calm Calm - N/A   Mist
3:38 AM 27.0 °F - 26.1 °F 96% 30.34 in 0.5 mi Calm Calm - N/A Fog Light Freezing Fog
3:46 AM 27.0 °F - 26.1 °F 96% 30.34 in 0.2 mi Calm Calm - N/A Fog Light Freezing Fog
3:53 AM 27.0 °F - 26.1 °F 96% 30.28 in 0.2 mi Calm Calm - N/A Fog Light Freezing Fog
4:53 AM 26.1 °F - 25.0 °F 96% 30.32 in 0.2 mi Calm Calm - N/A Fog Light Freezing Fog
5:53 AM 27.0 °F - 24.1 °F 89% 30.40 in 0.2 mi Calm Calm - N/A Fog Light Freezing Fog
6:50 AM 28.4 °F - 24.8 °F 86% 30.36 in 0.5 mi Calm Calm - N/A Fog Light Freezing Fog
6:53 AM 28.0 °F - 24.1 °F 85% 30.41 in 0.5 mi Calm Calm - N/A Fog Light Freezing Fog
7:19 AM 28.0 °F 24.2 °F 25.0 °F 88% 30.36 in 0.2 mi SSE 3.5 mph - N/A Fog Light Freezing Fog
7:53 AM 28.9 °F 25.2 °F 25.0 °F 85% 30.41 in 0.2 mi ENE 3.5 mph - N/A Fog Light Freezing Fog
8:53 AM 30.9 °F - 26.1 °F 82% 30.45 in 0.2 mi Calm Calm - N/A   Haze
9:53 AM 32.0 °F - 28.0 °F 85% 30.46 in 0.2 mi Calm Calm - N/A Fog Fog
10:29 AM 33.1 °F - 30.0 °F 89% 30.38 in 0.5 mi Calm Calm - N/A Fog Fog
10:49 AM 35.6 °F 32.8 °F 32.0 °F 87% 30.38 in 1.5 mi NNW 3.5 mph - N/A   Overcast
10:53 AM 35.1 °F 32.2 °F 30.9 °F 85% 30.43 in 2.0 mi WNW 3.5 mph - N/A   Overcast
11:08 AM 34.0 °F 31.0 °F 30.9 °F 89% 30.36 in 4.0 mi WSW 3.5 mph - N/A   Overcast
11:53 AM 34.0 °F 31.0 °F 33.1 °F 96% 30.40 in 10.0 mi WNW 3.5 mph - N/A   Overcast
12:12 PM 36.0 °F 33.3 °F 34.0 °F 93% 30.32 in 10.0 mi WSW 3.5 mph - N/A   Mostly Cloudy
12:37 PM 37.9 °F 33.5 °F 35.1 °F 89% 30.31 in 10.0 mi West 5.8 mph - N/A   Scattered Clouds
12:53 PM 39.0 °F 35.7 °F 35.1 °F 86% 30.34 in 10.0 mi West 4.6 mph - N/A   Clear
1:53 PM 46.0 °F 43.9 °F 37.0 °F 71% 30.25 in 10.0 mi Variable 4.6 mph - N/A   Clear
2:53 PM 48.0 °F - 35.1 °F 61% 30.22 in 10.0 mi NNW 6.9 mph - N/A   Clear
3:53 PM 41.0 °F 35.8 °F 33.1 °F 73% 30.28 in 10.0 mi NNW 8.1 mph - N/A   Clear
4:53 PM 36.0 °F 33.3 °F 30.9 °F 82% 30.34 in 10.0 mi NNW 3.5 mph - N/A   Clear
5:53 PM 32.0 °F - 30.0 °F 92% 30.37 in 10.0 mi Calm Calm - N/A   Clear
6:06 PM 32.0 °F 27.5 °F 28.9 °F 88% 30.30 in 10.0 mi NNE 4.6 mph - N/A   Scattered Clouds
6:17 PM 30.9 °F 27.5 °F 28.9 °F 92% 30.31 in 9.0 mi North 3.5 mph - N/A   Mostly Cloudy
6:30 PM 30.9 °F 26.2 °F 28.9 °F 92% 30.31 in 7.0 mi NNE 4.6 mph - N/A   Overcast
6:53 PM 30.9 °F 27.5 °F 30.0 °F 96% 30.39 in 4.0 mi North 3.5 mph - N/A   Overcast
7:13 PM 30.0 °F 25.2 °F 28.9 °F 96% 30.32 in 2.0 mi NNE 4.6 mph - N/A   Overcast
7:23 PM 30.0 °F 26.5 °F 28.9 °F 96% 30.32 in 4.0 mi NNE 3.5 mph - N/A   Overcast
7:53 PM 30.0 °F - 28.9 °F 96% 30.40 in 3.0 mi Calm Calm - N/A   Overcast
8:19 PM 30.0 °F - 28.9 °F 96% 30.33 in 1.8 mi Calm Calm - N/A   Overcast
8:36 PM 30.0 °F 26.5 °F 28.0 °F 92% 30.33 in 3.0 mi North 3.5 mph - N/A   Overcast
8:53 PM 30.0 °F - 28.9 °F 96% 30.39 in 2.5 mi Calm Calm - N/A   Overcast
9:01 PM 30.0 °F - 30.0 °F 100% 30.33 in 6.0 mi Calm Calm - N/A   Overcast
9:24 PM 30.0 °F - 28.9 °F 96% 30.33 in 2.0 mi Calm Calm - N/A   Overcast
9:32 PM 30.0 °F - 28.9 °F 96% 30.33 in 1.0 mi Calm Calm - N/A   Overcast
9:49 PM 28.4 °F - 28.4 °F 100% 30.33 in 0.8 mi Calm Calm - N/A   Mist
9:53 PM 28.9 °F - 28.9 °F 100% 30.40 in 0.8 mi Calm Calm - N/A   Mist
10:53 PM 28.0 °F 22.8 °F 28.0 °F 100% 30.39 in 0.2 mi West 4.6 mph - N/A Fog Light Freezing Fog
11:46 PM 28.0 °F - 28.0 °F 100% 30.35 in 0.5 mi Calm Calm - N/A Fog Light Freezing Fog
11:53 PM 28.0 °F 24.2 °F 28.0 °F 100% 30.42 in 0.5 mi NW 3.5 mph - N/A Fog Light Freezing Fog